User: anonymous
Location: Nebula Knoll Observatory
(43.6666°N, 71.0000°W)
Time: 14:14:55
(UTC-04:00)
Language:

SeaSat 1 - Orbit

View from above orbital plane
View from above orbital plane
View from above satellite
View from above satellite

Ground track
Ground track

The orbit data is extracted from the following two-line orbital elements,

1 10967U 78064A   14241.30753424  .00000127  00000-0  78485-4 0  3651
2 10967 107.9893 323.6792 0002697 258.4003 142.1720 14.43062898899020
Epoch (UTC): 29 August 2014 07:22:50
Eccentricity: 0.0002697
inclination: 107.9893°
perigee height: 746 km
apogee height: 750 km
right ascension of ascending node: 323.6792°
argument of perigee: 258.4003°
revolutions per day: 14.43062898
mean anomaly at epoch: 142.1720°
orbit number at epoch: 89902

The dashed part of the orbit path shows where the satellite is in the earth's shadow,  

DLR